Date,TemperatureHighF,TemperatureAvgF,TemperatureLowF,DewpointHighF,DewpointAvgF,DewpointLowF,HumidityHigh,HumidityAvg,HumidityLow,PressureMaxIn,PressureMinIn,WindSpeedMaxMPH,WindSpeedAvgMPH,GustSpeedMaxMPH,PrecipitationSumIn
2013-3-1,45,37,27,21,15,8,61,41,28,30.31,30.20,7,2,0,0.00
2013-3-2,66,46,27,29,24,20,73,45,22,30.30,30.06,16,4,0,0.00
2013-3-3,67,53,41,27,24,19,50,33,21,30.06,29.68,24,10,0,0.00
2013-3-4,50,32,21,25,20,7,88,63,35,30.22,29.68,25,5,0,0.00
2013-3-5,45,28,12,25,15,6,77,57,40,30.25,30.13,4,2,0,0.00
2013-3-6,58,38,19,28,19,7,84,54,13,30.13,29.84,9,2,0,0.00
2013-3-7,62,46,29,28,23,16,69,45,17,30.00,29.85,12,4,0,0.00
2013-3-8,55,39,30,33,28,23,80,65,42,30.00,29.70,4,2,0,0.00
2013-3-9,35,31,24,31,25,14,88,78,61,30.08,29.64,15,6,0,0.00
2013-3-10,47,30,13,23,15,7,81,56,28,30.14,30.03,12,4,0,0.00
2013-3-11,51,41,31,29,20,13,89,48,24,30.16,29.92,28,11,0,0.00
2013-3-12,37,30,24,28,24,19,91,79,59,30.33,30.16,4,1,0,0.00
2013-3-13,63,44,28,33,24,17,82,53,18,30.30,30.16,13,4,0,0.00
2013-3-14,69,57,41,25,20,15,51,25,13,30.34,30.18,8,2,0,0.00
2013-3-15,74,66,55,21,16,12,24,15,10,30.18,29.91,20,9,0,0.00
2013-3-16,60,48,39,32,29,21,72,50,24,30.03,29.83,10,4,0,0.00
2013-3-17,57,45,34,30,20,7,68,39,14,29.84,29.56,29,8,0,0.00
2013-3-18,48,40,34,12,6,0,35,24,17,29.94,29.83,23,13,0,0.00
2013-3-19,53,43,28,15,1,-15,55,19,6,30.37,29.93,25,9,0,0.00
2013-3-20,51,36,22,21,16,13,70,48,26,30.35,29.74,8,2,0,0.00
2013-3-21,59,45,39,34,20,4,64,38,17,29.82,29.53,25,6,0,0.00
2013-3-22,46,34,27,28,17,5,92,53,21,29.91,29.67,22,7,0,0.00
2013-3-23,27,19,14,25,15,7,91,84,74,30.16,29.89,14,8,0,0.00
2013-3-24,31,19,3,20,10,-2,83,68,48,30.20,30.06,5,2,0,0.00
2013-3-25,39,24,9,15,10,4,86,61,30,30.26,30.17,11,2,0,0.00
2013-3-26,45,31,16,26,18,9,76,59,37,30.18,29.93,8,3,0,0.00
2013-3-27,53,41,30,35,28,22,77,62,39,30.12,30.01,8,3,0,0.00
2013-3-28,63,48,33,34,30,22,85,55,22,30.15,30.05,7,2,0,0.00
2013-3-29,65,53,40,32,26,20,67,40,18,30.16,30.08,16,5,0,0.00
2013-3-30,65,50,38,37,27,-100,78,47,15,30.25,30.03,20,6,0,0.00
2013-3-31,67,52,35,35,24,11,83,42,12,30.24,29.95,13,3,0,0.00